Weather Roundup
Issued by NWS

Home | Current Version | Previous Version | Graphics & Text | Print | Product List | Glossary On
Versions: 1 2 3 4 5 6 7 8 9 10 11 12 13 14 15 16 17 18 19 20 21 22 23 24 25 26 27 28 29 30 31 32 33 34 35 36 37 38 39 40 41 42 43 44 45 46 47 48 49 50
000
NZUS93 KARX 280910
HRRWXR

CURRENT HOURLY OBSERVATIONS ACROSS
MUCH OF THE UPPER MISSISSIPPI VALLEY
NATIONAL WEATHER SERVICE LA CROSSE WI
400 AM CDT SAT MAR 28 2015


...SOUTHEAST MINNESOTA...


CITY           SKY/WX    TMP DP  RH WIND       PRES   REMARKS
ROCHESTER      PTCLDY    17  10  74 S7        30.16F WCI   8
ROCHESTER/MAYO CLOUDY    21  13  71 SE3       30.17S
WINONA         MOCLDY    21  18  86 CALM      30.22S
AUSTIN         PTCLDY    19  14  79 CALM      30.17S
ALBERT LEA     CLOUDY    25  16  68 S6        30.16S WCI  18
DODGE CENTER   PTCLDY    18  10  73 CALM      30.16S
PRESTON        PTCLDY    15  11  84 SE3       30.18R
OWATONNA       CLOUDY    21  12  68 SE8       30.16S WCI  12
FARIBAULT      CLOUDY    23  10  58 CALM      30.18R
$$

...ELSEWHERE IN MINNESOTA...


CITY           SKY/WX    TMP DP  RH WIND       PRES   REMARKS
MINNEAPOLIS    MOCLDY    24   7  48 E6        30.20R WCI  17
INTNL FALLS    CLEAR     11   7  84 CALM      30.12F
DULUTH         CLEAR     19  12  74 SE3       30.14F
RED WING       CLEAR     19  14  79 CALM      30.20R
REDWOOD FALLS  CLOUDY    29  26  89 SE5       30.14F WCI  24
MANKATO        CLEAR     21  12  68 SE7       30.16F WCI  13
WORTHINGTON    CLOUDY    27  23  86 SE7       30.12S WCI  19
FAIRMONT       CLOUDY    27  19  74 SE5       30.14S WCI  21
$$

...SOUTHWEST WISCONSIN...


CITY           SKY/WX    TMP DP  RH WIND       PRES   REMARKS
LA CROSSE      PTCLDY    22  14  71 CALM      30.22S
PRAIRIE DU CHI PTCLDY    16  10  76 CALM      30.22S
BOSCOBEL       CLEAR     16  12  84 CALM      30.23R
LONE ROCK      PTCLDY    17  10  74 E3        30.23R
PLATTEVILLE    PTCLDY    22  15  74 E7        30.20S WCI  14
FORT MC COY    CLEAR     11   8  87 CALM      30.22S
CAMP DOUGLAS   PTCLDY    13  12  99 CALM      30.21R
VIROQUA        FAIR      21  10  64 E5        30.18S WCI  14
WIS DELLS      FAIR      17   9  71 CALM      30.21S
$$

...ELSEWHERE IN WISCONSIN...


CITY           SKY/WX    TMP DP  RH WIND       PRES   REMARKS
MILWAUKEE      FAIR      20  11  68 CALM      30.23S
MADISON        CLEAR     16  10  77 E3        30.22S
GREEN BAY      CLEAR     19  12  74 CALM      30.25S
EAU CLAIRE     CLEAR     17  11  77 CALM      30.19S
BLACK RVR FLS  FAIR       9   6  86 CALM      30.21R
MEDFORD        CLEAR     13  10  90 CALM      30.17S
WAUSAU         CLEAR     15   8  73 SE3       30.19R
WIS RAPIDS     CLEAR     13   6  74 CALM      30.22R
MARSHFIELD     CLEAR     18  10  71 NE6       30.19R WCI  10
RICE LAKE      CLEAR     19  14  80 CALM      30.20S
$$

...NORTHEAST IOWA...


CITY           SKY/WX    TMP DP  RH WIND       PRES   REMARKS
DECORAH        CLOUDY    16  10  79 CALM      30.18S
MASON CITY     CLOUDY    25  16  68 SE7       30.18S WCI  17
CHARLES CITY   CLOUDY    23  18  80 SE3       30.19R
OELWEIN        MOCLDY    23  16  74 SE6       30.19S WCI  16
$$

...ELSEWHERE IN IOWA...


CITY           SKY/WX    TMP DP  RH WIND       PRES   REMARKS
DES MOINES     CLOUDY    33  11  39 SE7       30.16S WCI  27
IOWA CITY      PTCLDY    24  14  65 SE3       30.22R
FORT DODGE     CLOUDY    28  19  69 E7        30.16S WCI  21
$$

...NORTHERN ILLINOIS...


CITY           SKY/WX    TMP DP  RH WIND       PRES   REMARKS
CHICAGO-OHARE  PTCLDY    21  13  71 N6        30.22S WCI  13
CHICAGO-MIDWAY FAIR      23  13  65 NW6       30.22S WCI  16
MOLINE         PTCLDY    20  12  71 E6        30.22R WCI  12
ROCKFORD       CLEAR     19  12  74 CALM      30.25S
PEORIA         CLEAR     23  14  68 E3        30.23S
$$

NOTE: "FAIR" INDICATES FEW OR NO CLOUDS BELOW 12,000 FEET WITH NO
SIGNIFICANT WEATHER AND/OR OBSTRUCTIONS TO VISIBILITY. WIND
SPEEDS ARE IN MILES-PER-HOUR.



USA.gov is the U.S. government's official web portal to all federal, state and local government web resources and services.